Waarnemingen

Advertentie
Mijn weer
Helgoland, Duitsland (10015): temperatuur & dauwpunt: 13.06.2018 02:00:00 - 19.06.2018 02:00:00 (CEST)Helgoland, Duitsland (10015): temperatuur 5cm: 13.06.2018 02:00:00 - 19.06.2018 02:00:00 (CEST)Helgoland, Duitsland (10015): windsnelheid & windstoten: 13.06.2018 02:00:00 - 19.06.2018 02:00:00 (CEST)Helgoland, Duitsland (10015): windrichting: 13.06.2018 02:00:00 - 19.06.2018 02:00:00 (CEST)Helgoland, Duitsland (10015): luchtdruk: 13.06.2018 02:00:00 - 19.06.2018 02:00:00 (CEST)Helgoland, Duitsland (10015): zicht: 13.06.2018 02:00:00 - 19.06.2018 02:00:00 (CEST)Helgoland, Duitsland (10015): Zonneschijnduur: 13.06.2018 02:00:00 - 19.06.2018 02:00:00 (CEST)Helgoland, Duitsland (10015): neerslag: 13.06.2018 02:00:00 - 19.06.2018 02:00:00 (CEST)
Datum & Tijd tt [°C] td [°C] tt 5cm [°C] ff [km/u] ff [kn] fx [km/u] fx [kn] dd ppp [hPa] vv [km] sd [min] rr [mm]
19.06.2018 02:00:00 - - - - - - - - - - - -
19.06.2018 01:00:00 15,3 14,2 14,6 24 13 35 19 WZW 1017,3 11 0 0,0
19.06.2018 00:00:00 15,2 14,0 14,4 27 15 35 19 WZW 1017,5 13 0 0,0
18.06.2018 23:00:00 15,2 13,9 14,4 25 14 36 19 WZW 1017,5 14 0 0,0
18.06.2018 22:00:00 15,3 13,9 15,2 27 14 33 18 WZW 1017,0 13 9 0,0
18.06.2018 21:00:00 15,5 14,1 15,7 22 12 30 16 WZW 1017,0 11 16 0,0
18.06.2018 20:00:00 15,4 14,3 16,0 22 12 27 15 WZW 1017,1 11 0 0,0
18.06.2018 19:00:00 15,6 14,1 17,3 19 10 23 13 WZW 1017,0 12 2 0,0
18.06.2018 18:00:00 16,1 14,2 19,7 19 10 26 14 WZW 1017,0 13 15 0,0
18.06.2018 17:00:00 16,0 14,3 19,8 21 12 31 17 WZW 1017,2 11 21 0,0
18.06.2018 16:00:00 16,3 14,2 20,9 26 14 34 19 WZW 1017,3 11 23 0,0
18.06.2018 15:00:00 16,7 14,4 21,8 22 12 33 18 ZW 1017,2 7 1 0,0
18.06.2018 14:00:00 16,1 14,7 18,5 31 17 38 21 ZZW 1016,8 3,6 3 0,0
18.06.2018 13:00:00 16,2 13,9 20,6 31 17 38 21 ZZW 1016,9 8 1 0,0
18.06.2018 12:00:00 15,9 13,5 19,4 34 18 40 22 ZZW 1016,9 9 0 0,0
18.06.2018 11:00:00 15,0 13,5 17,5 34 19 45 25 ZZW 1016,8 7 0 0,0
18.06.2018 10:00:00 15,1 12,9 17,0 33 18 43 23 ZZW 1016,8 11 0 0,0
18.06.2018 09:00:00 15,1 12,3 16,8 35 19 43 23 ZZW 1016,8 12 0 0,0
18.06.2018 08:00:00 14,9 12,2 15,9 30 16 37 20 ZZW 1016,6 16 0 0,0
18.06.2018 07:00:00 14,8 12,4 14,9 32 17 41 22 ZZW 1016,5 15 0 0,0
18.06.2018 06:00:00 14,5 12,5 14,3 31 17 36 20 ZZW 1016,7 12 0 0,0
18.06.2018 05:00:00 14,6 12,5 13,2 27 15 34 19 ZZW 1016,8 14 0 0,0
18.06.2018 04:00:00 14,7 12,7 13,0 23 12 27 14 ZZW 1016,9 14 0 0,0
18.06.2018 03:00:00 15,0 12,6 13,9 18 10 24 13 ZW 1017,0 20 0 0,0
18.06.2018 02:00:00 14,8 12,5 13,4 18 10 24 13 WZW 1017,5 17 0 0,0
18.06.2018 01:00:00 14,6 12,2 13,4 18 10 26 14 WZW 1017,4 18 0 0,0
18.06.2018 00:00:00 14,6 11,7 13,9 19 10 26 14 WZW 1017,4 20 0 0,0
17.06.2018 23:00:00 14,5 12,0 13,5 19 10 23 13 WZW 1017,2 17 0 0,0
17.06.2018 22:00:00 14,8 11,9 14,4 16 9 21 11 WZW 1017,0 18 0 0,0
17.06.2018 21:00:00 15,0 12,1 14,6 16 9 25 13 WZW 1016,8 17 45 0,0
17.06.2018 20:00:00 15,5 11,9 17,4 21 11 30 16 W 1016,8 19 57 0,0
17.06.2018 19:00:00 15,6 11,8 18,9 24 13 29 16 WZW 1016,4 12 52 0,0
17.06.2018 18:00:00 15,8 11,9 20,7 23 13 32 17 WZW 1016,1 11 60 0,0
17.06.2018 17:00:00 16,3 12,0 22,5 20 11 26 14 WZW 1015,9 11 60 0,0
17.06.2018 16:00:00 16,4 12,1 23,4 22 12 28 15 WZW 1015,6 11 59 0,0
17.06.2018 15:00:00 16,1 11,4 22,7 22 12 29 16 WZW 1015,3 13 49 0,0
17.06.2018 14:00:00 16,3 11,7 21,3 24 13 32 18 W 1014,8 16 38 0,0
17.06.2018 13:00:00 16,2 11,9 21,6 23 12 34 18 W 1014,3 14 38 0,0
17.06.2018 12:00:00 15,9 12,0 22,1 29 16 36 20 W 1013,7 16 8 0,0
17.06.2018 11:00:00 15,9 12,7 22,2 23 12 36 20 WZW 1013,3 11 26 0,0
17.06.2018 10:00:00 15,4 12,8 17,6 28 15 38 21 ZW 1012,9 20 3 0,0
17.06.2018 09:00:00 15,3 12,3 18,0 31 17 39 21 ZZW 1012,3 19 14 0,0
17.06.2018 08:00:00 15,0 12,4 16,8 34 19 40 21 ZZW 1012,1 18 45 0,0
17.06.2018 07:00:00 14,9 12,0 14,9 31 17 40 22 ZZW 1012,1 14 51 0,0
17.06.2018 06:00:00 14,9 11,5 13,8 32 17 37 20 ZW 1012,2 19 0 0,0
17.06.2018 05:00:00 14,9 11,6 13,4 28 15 33 18 ZW 1012,4 25 0 0,0
17.06.2018 04:00:00 15,2 11,8 13,7 26 14 35 19 ZW 1012,6 25 0 0,0
17.06.2018 03:00:00 15,4 14,1 14,2 20 11 26 14 ZZW 1012,9 6 0 0,0
17.06.2018 02:00:00 15,4 13,6 13,9 19 10 23 12 ZW 1013,1 10 0 0,0
17.06.2018 01:00:00 15,4 13,7 14,8 21 11 26 14 ZZW 1013,3 9 0 0,0
17.06.2018 00:00:00 15,3 13,4 14,8 16 9 19 10 ZZW 1013,2 9 0 0,0
16.06.2018 23:00:00 15,5 13,1 14,9 13 7 14 7 ZZW 1013,2 12 0 0,0
16.06.2018 22:00:00 15,5 13,1 13,9 7 4 10 5 ZW 1013,2 12 0 0,0
16.06.2018 21:00:00 15,8 12,5 14,9 9 5 16 8 W 1013,2 17 6 0,0
16.06.2018 20:00:00 16,2 13,1 17,7 15 8 21 11 WNW 1013,3 12 1 0,0
16.06.2018 19:00:00 17,2 13,2 19,6 8 4 12 6 W 1013,1 11 18 0,0
16.06.2018 18:00:00 18,0 12,8 23,9 4 2 8 4 Z 1013,1 10 27 0,0
16.06.2018 17:00:00 17,3 13,1 20,3 3 1 12 7 ZO 1013,4 11 3 0,0
16.06.2018 16:00:00 17,8 12,2 25,2 10 5 17 9 WNW 1013,3 13 42 0,0
16.06.2018 15:00:00 17,6 13,0 24,5 6 3 10 5 W 1013,3 9 19 0,0
16.06.2018 14:00:00 16,7 14,0 19,4 10 5 16 9 ZW 1013,8 7 21 0,0
16.06.2018 13:00:00 18,6 14,5 24,5 8 4 13 7 ZZW 1014,1 10 22 0,0
16.06.2018 12:00:00 16,6 13,9 19,7 6 4 10 6 OZO 1014,2 12 0 0,0
16.06.2018 11:00:00 17,1 13,8 20,6 9 5 23 12 ZZO 1014,1 14 0 0,0
16.06.2018 10:00:00 16,2 13,3 17,3 21 11 27 15 ZO 1014,0 16 0 0,0
16.06.2018 09:00:00 16,0 12,7 16,6 25 14 29 16 ZO 1014,1 24 0 0,0
16.06.2018 08:00:00 16,2 13,0 16,3 22 12 31 17 ZO 1014,3 25 0 0,0
16.06.2018 07:00:00 16,3 12,3 15,8 29 16 33 18 ZO 1014,5 26 0 0,0
16.06.2018 06:00:00 16,4 12,1 15,8 29 16 37 20 OZO 1014,7 29 0 0,0
16.06.2018 05:00:00 16,5 12,8 15,8 24 13 28 15 OZO 1015,2 28 0 0,0
16.06.2018 04:00:00 15,6 13,0 14,6 18 10 22 12 OZO 1015,6 22 0 0,0
16.06.2018 03:00:00 15,4 12,2 14,1 17 9 18 10 O 1016,0 29 0 0,0
16.06.2018 02:00:00 15,0 12,2 13,5 10 5 14 7 NO 1016,4 25 0 0,0
16.06.2018 01:00:00 15,2 12,2 13,9 13 7 14 7 ONO 1016,5 27 0 0,0
16.06.2018 00:00:00 15,5 12,0 15,1 10 5 15 8 NO 1016,7 31 0 0,0
15.06.2018 23:00:00 16,2 11,4 15,7 15 8 16 9 O 1016,7 39 0 0,0
15.06.2018 22:00:00 15,9 12,4 15,6 13 7 16 9 O 1016,8 31 0 0,0
15.06.2018 21:00:00 16,0 12,0 16,2 15 8 16 9 ONO 1016,9 24 3 0,0
15.06.2018 20:00:00 16,7 12,0 19,9 12 7 13 7 ONO 1017,2 23 48 0,0
15.06.2018 19:00:00 17,2 11,6 23,6 11 6 13 7 ONO 1017,4 21 60 0,0
15.06.2018 18:00:00 17,8 11,4 26,0 10 5 11 6 NO 1017,5 17 60 0,0
15.06.2018 17:00:00 17,1 11,0 27,3 6 4 10 5 N 1017,7 17 60 0,0
15.06.2018 16:00:00 18,7 11,3 27,3 0 0 6 4 N 1018,0 18 60 0,0
15.06.2018 15:00:00 17,2 11,8 26,5 5 3 8 5 ZZO 1017,9 15 60 0,0
15.06.2018 14:00:00 18,0 13,0 26,6 8 4 11 6 ZZW 1017,9 12 60 0,0
15.06.2018 13:00:00 16,4 12,1 23,7 7 4 12 6 ZZW 1017,9 14 60 0,0
15.06.2018 12:00:00 16,8 13,1 22,4 10 6 16 9 ZZW 1017,7 16 60 0,0
15.06.2018 11:00:00 16,6 13,1 21,9 15 8 16 9 ZZW 1017,4 14 60 0,0
15.06.2018 10:00:00 16,2 11,8 20,3 11 6 16 8 ZZW 1017,1 20 59 0,0
15.06.2018 09:00:00 16,0 12,4 18,5 10 5 11 6 ZZW 1016,7 19 60 0,0
15.06.2018 08:00:00 14,7 11,6 15,7 8 4 12 7 ZW 1016,1 20 60 0,0
15.06.2018 07:00:00 14,2 11,9 13,2 11 6 16 9 W 1015,8 18 53 0,0
15.06.2018 06:00:00 13,7 11,6 11,6 13 7 19 10 W 1015,5 16 0 0,0
15.06.2018 05:00:00 13,6 11,5 11,2 15 8 21 11 W 1015,0 19 0 0,0
15.06.2018 04:00:00 13,9 11,5 11,5 16 9 25 13 W 1014,8 18 0 0,0
15.06.2018 03:00:00 14,0 12,0 11,8 20 11 24 13 WNW 1014,7 16 0 0,0
15.06.2018 02:00:00 14,0 12,4 12,0 19 11 27 15 W 1014,6 11 0 0,0
15.06.2018 01:00:00 14,1 12,7 12,6 21 11 31 17 W 1014,3 9 0 0,0
15.06.2018 00:00:00 14,3 12,9 13,0 24 13 31 17 W 1014,0 8 0 0,0
14.06.2018 23:00:00 14,2 13,4 13,1 25 14 36 19 W 1013,4 4,7 0 0,0
14.06.2018 22:00:00 14,5 13,5 14,0 28 15 39 21 WZW 1012,8 7 0 0,0
14.06.2018 21:00:00 14,7 13,7 14,4 29 16 39 21 WZW 1012,2 9 0 0,0
14.06.2018 20:00:00 14,6 13,9 14,3 31 17 43 23 ZW 1011,7 11 0 0,7
14.06.2018 19:00:00 14,4 13,8 14,4 34 18 54 29 ZW 1011,5 5 0 0,8
14.06.2018 18:00:00 15,8 12,7 14,8 37 20 44 24 Z 1011,1 9 0 0,2
14.06.2018 17:00:00 15,7 12,1 14,4 35 19 44 24 ZZW 1010,9 9 0 0,4
14.06.2018 16:00:00 15,8 12,2 14,4 35 19 45 24 ZZW 1011,1 5 0 0,5
14.06.2018 15:00:00 16,8 11,2 15,9 35 19 41 22 ZZW 1010,7 11 0 0,0
14.06.2018 14:00:00 17,9 10,6 22,3 33 18 40 22 ZZW 1010,7 12 19 0,0
14.06.2018 13:00:00 18,1 10,6 22,9 33 18 37 20 Z 1011,1 12 42 0,0
14.06.2018 12:00:00 18,0 11,6 25,0 29 16 37 20 Z 1011,3 7 60 0,0
14.06.2018 11:00:00 16,7 11,0 21,3 34 19 46 25 ZZW 1011,6 5 60 0,0
14.06.2018 10:00:00 16,0 10,9 19,5 37 20 46 25 Z 1011,7 8 60 0,0
14.06.2018 09:00:00 15,3 10,9 18,0 35 19 46 25 ZZW 1012,0 8 60 0,0
14.06.2018 08:00:00 14,7 10,6 15,8 39 21 50 27 ZZW 1012,3 11 20 0,0
14.06.2018 07:00:00 14,4 10,3 14,3 40 22 48 26 ZZW 1012,4 18 0 0,0
14.06.2018 06:00:00 14,3 10,5 13,4 35 19 41 22 ZZW 1012,7 23 0 0,0
14.06.2018 05:00:00 14,3 10,8 13,6 30 16 36 19 ZZW 1013,2 28 0 0,0
14.06.2018 04:00:00 14,2 11,7 13,3 21 11 26 14 ZZW 1013,8 28 0 0,0
14.06.2018 03:00:00 14,0 11,3 13,3 19 10 24 13 ZW 1014,2 32 0 0,0
14.06.2018 02:00:00 13,6 10,7 11,8 17 9 31 17 WZW 1014,4 33 0 0,0
14.06.2018 01:00:00 13,7 10,2 12,3 22 12 37 20 WZW 1014,6 37 0 0,0
14.06.2018 00:00:00 13,9 10,8 13,9 27 15 35 19 WZW 1015,1 33 0 0,0
13.06.2018 23:00:00 14,0 10,5 13,9 16 8 20 11 WZW 1015,2 40 0 0,0
13.06.2018 22:00:00 13,9 9,7 14,0 11 6 24 13 WNW 1015,3 46 0 0,0
13.06.2018 21:00:00 13,8 9,0 13,9 19 10 34 18 WNW 1015,2 45 43 0,0
13.06.2018 20:00:00 14,4 8,8 16,3 29 16 39 21 WNW 1015,0 40 44 0,0
13.06.2018 19:00:00 14,3 8,7 17,9 27 15 34 18 WNW 1015,1 19 44 0,0
13.06.2018 18:00:00 14,7 8,1 19,7 28 15 38 21 WNW 1014,8 12 32 0,0
13.06.2018 17:00:00 14,6 9,0 18,5 29 16 39 21 WNW 1014,9 37 18 0,0
13.06.2018 16:00:00 14,6 9,8 18,4 29 16 39 21 WNW 1014,5 29 13 0,0
13.06.2018 15:00:00 14,3 9,1 16,9 24 13 37 20 WNW 1014,8 26 1 0,0
13.06.2018 14:00:00 14,5 8,1 20,5 27 14 32 17 WNW 1014,7 21 9 0,0
13.06.2018 13:00:00 14,0 8,1 17,1 24 13 35 19 NW 1014,6 31 0 0,0
13.06.2018 12:00:00 14,6 7,5 18,9 30 16 42 23 NW 1014,2 15 0 0,0
13.06.2018 11:00:00 14,1 8,7 16,8 29 15 40 22 NW 1014,0 22 0 0,0
13.06.2018 10:00:00 13,6 8,5 14,5 27 15 39 21 NW 1013,6 35 0 0,0
13.06.2018 09:00:00 12,4 10,5 12,5 25 14 49 27 NW 1013,5 10 0 0,0
13.06.2018 08:00:00 12,9 10,3 12,6 30 16 48 26 WNW 1013,2 27 0 0,0
13.06.2018 07:00:00 13,0 9,6 12,3 33 18 49 27 NW 1013,0 29 0 0,0
13.06.2018 06:00:00 13,4 9,7 12,1 29 16 48 26 NW 1012,8 29 0 0,1
13.06.2018 05:00:00 13,8 9,9 13,6 26 14 39 21 NW 1012,7 33 0 0,0
13.06.2018 04:00:00 13,3 9,3 12,6 30 16 48 26 NNW 1012,7 35 0 0,0
13.06.2018 03:00:00 14,0 8,7 13,7 31 17 45 24 NNW 1012,7 40 0 0,0
13.06.2018 02:00:00 13,6 9,2 13,4 26 14 37 20 NW 1012,7 25 0 0,0

tt = temperatuur
td = dauwpunt
tt 5cm = temperatuur 5cm
ff = windsnelheid
fx = windstoten
dd = windrichting
ppp = luchtdruk
vv = zicht
sd = Zonneschijnduur
rr = neerslag

Weerstations in de omgeving